GW6058 Weather Reports


Display with metric or nautical units.
time (UTC)temp
F
wind
direction
speed
MPH
gust
MPH
rain 1hr
in
rain 24hr
in
rain mn
in
humidity
%
barometer
mb
20260906120731 76 237 0.0 1.0 0.00 0.00 0.00 97
20260906120227 76 248 2.0 3.0 0.00 0.00 0.00 97
20260906115723 76 258 1.0 1.0 0.00 0.00 0.00 97
20260906115218 76 262 0.0 1.0 0.00 0.00 0.00 97
20260906114717 76 274 1.0 2.0 0.00 0.00 0.00 97
20260906114212 76 230 0.0 0.0 0.00 0.00 0.00 97
20260906113708 76 246 0.0 1.0 0.00 0.00 0.00 97
20260906113207 76 246 0.0 0.0 0.00 0.00 0.00 97
20260906112706 76 246 0.0 0.0 0.00 0.00 0.00 97
20260906112203 76 241 1.0 3.0 0.00 0.00 0.00 97
20260906111703 75 235 0.0 0.0 0.00 0.00 0.00 96
20260906111157 75 226 0.0 0.0 0.00 0.00 0.00 96
20260906110652 75 226 0.0 0.0 0.00 0.00 0.00 96
20260906110148 75 226 0.0 0.0 0.00 0.00 0.00 96
20260906105647 75 226 0.0 0.0 0.00 0.00 0.00 96
20260906105144 75 226 0.0 0.0 0.00 0.00 0.00 96
20260906104643 75 226 0.0 0.0 0.00 0.00 0.00 96
20260906104143 75 226 0.0 0.0 0.00 0.00 0.00 96
20260906103641 76 226 0.0 0.0 0.00 0.00 0.00 96
20260906103136 76 226 0.0 0.0 0.00 0.00 0.00 96
20260906102632 76 226 0.0 0.0 0.00 0.00 0.00 96
20260906102131 76 225 1.0 2.0 0.00 0.00 0.00 96
20260906101626 76 242 0.0 0.0 0.00 0.00 0.00 96
20260906101125 76 242 0.0 1.0 0.00 0.00 0.00 96
20260906100622 76 239 0.0 1.0 0.00 0.00 0.00 96
20260906100122 76 231 0.0 0.0 0.00 0.00 0.00 96
20260906095622 76 230 0.0 0.0 0.00 0.00 0.00 96
20260906095117 76 231 0.0 0.0 0.00 0.00 0.00 96
20260906094617 76 230 0.0 0.0 0.00 0.00 0.00 96
20260906094113 76 230 0.0 0.0 0.00 0.00 0.00 95
20260906093609 76 230 0.0 0.0 0.00 0.00 0.00 95
20260906093108 76 231 0.0 0.0 0.00 0.00 0.00 95
20260906092603 76 231 0.0 0.0 0.00 0.00 0.00 95
20260906092058 76 230 0.0 1.0 0.00 0.00 0.00 95
20260906091554 76 205 0.0 0.0 0.00 0.00 0.00 95
20260906091051 76 224 0.0 0.0 0.00 0.00 0.00 95
20260906090550 76 231 0.0 1.0 0.00 0.00 0.00 94
20260906090046 76 239 0.0 1.0 0.00 0.00 0.00 94
20260906085544 76 237 0.0 0.0 0.00 0.00 0.00 94
20260906085044 76 238 0.0 0.0 0.00 0.00 0.00 94
20260906084539 77 238 0.0 0.0 0.00 0.00 0.00 94
20260906084037 77 238 0.0 0.0 0.00 0.00 0.00 94
20260906083533 77 238 0.0 0.0 0.00 0.00 0.00 94
20260906083033 77 237 0.0 1.0 0.00 0.00 0.00 94
20260906082528 77 235 0.0 1.0 0.00 0.00 0.00 93
20260906082024 77 234 0.0 0.0 0.00 0.00 0.00 93
20260906081520 77 233 1.0 2.0 0.00 0.00 0.00 93
20260906081015 77 253 1.0 2.0 0.00 0.00 0.00 93
20260906080512 77 241 1.0 1.0 0.00 0.00 0.00 93
20260906080008 77 247 1.0 2.0 0.00 0.00 0.00 93
20260906075501 78 230 1.0 1.0 0.00 0.00 0.00 93
20260906074956 78 228 1.0 2.0 0.00 0.00 0.00 93
20260906074457 78 237 1.0 3.0 0.00 0.00 0.00 93
20260906073955 78 227 0.0 0.0 0.00 0.00 0.00 93
20260906073450 78 227 0.0 2.0 0.00 0.00 0.00 93
20260906072946 77 220 1.0 2.0 0.00 0.00 0.00 93
20260906072441 77 220 1.0 2.0 0.00 0.00 0.00 93
20260906071937 77 220 2.0 2.0 0.00 0.00 0.00 93
20260906071433 77 148 0.0 0.0 0.00 0.00 0.00 93
20260906070929 77 148 0.0 0.0 0.00 0.00 0.00 93
20260906070425 77 148 0.0 0.0 0.00 0.00 0.00 93
20260906065920 77 147 0.0 1.0 0.00 0.00 0.00 93
20260906065414 78 66 0.0 0.0 0.00 0.00 0.00 93
20260906064910 78 271 0.0 0.0 0.00 0.00 0.00 93
20260906064407 78 270 0.0 0.0 0.00 0.00 0.00 93
20260906063906 78 271 0.0 0.0 0.00 0.00 0.00 93
20260906063401 78 256 0.0 0.0 0.00 0.00 0.00 92
20260906062856 78 278 1.0 2.0 0.00 0.00 0.00 92
20260906062355 78 215 0.0 0.0 0.00 0.00 0.00 92
20260906061851 78 217 0.0 0.0 0.00 0.00 0.00 92
20260906061348 78 218 0.0 2.0 0.00 0.00 0.00 92
20260906060842 78 245 2.0 3.0 0.00 0.00 0.00 92
20260906060340 78 275 1.0 1.0 0.00 0.00 0.00 92
20260906055835 78 229 2.0 4.0 0.00 0.00 0.00 92
20260906055331 78 246 1.0 3.0 0.00 0.00 0.00 92
20260906054826 78 241 4.0 4.0 0.00 0.00 0.00 92
20260906054321 79 247 0.0 3.0 0.00 0.00 0.00 92
20260906053818 79 248 1.0 3.0 0.00 0.00 0.00 92
20260906053313 79 253 2.0 3.0 0.00 0.00 0.00 92
20260906052808 79 280 1.0 2.0 0.00 0.00 0.00 92
20260906052306 79 247 2.0 2.0 0.00 0.00 0.00 91
20260906051801 79 231 0.0 3.0 0.00 0.00 0.00 91
20260906051300 79 242 3.0 4.0 0.00 0.00 0.00 91
20260906050756 79 264 2.0 3.0 0.00 0.00 0.00 91
20260906050251 79 248 2.0 3.0 0.00 0.00 0.00 91
20260906045749 79 245 2.0 2.0 0.00 0.00 0.00 91
20260906045244 79 272 1.0 2.0 0.00 0.00 0.00 91
20260906044741 79 261 1.0 4.0 0.00 0.00 0.00 91
20260906044235 79 251 1.0 2.0 0.00 0.00 0.00 91
20260906043732 79 260 2.0 4.0 0.00 0.00 0.00 91
20260906043227 79 244 1.0 3.0 0.00 0.00 0.00 91
20260906042727 79 243 2.0 2.0 0.00 0.00 0.00 91
20260906042226 80 257 1.0 2.0 0.00 0.00 0.00 90
20260906041721 80 258 2.0 3.0 0.00 0.00 0.00 90
20260906041217 80 234 1.0 2.0 0.00 0.00 0.00 90
20260906040712 80 232 0.0 2.0 0.00 0.00 0.00 90
20260906040207 80 264 1.0 2.0 0.00 0.00 0.00 90
20260906035703 80 272 0.0 1.0 0.00 0.00 0.00 89
20260906035159 80 264 1.0 2.0 0.00 0.00 0.00 89
20260906034653 80 240 1.0 3.0 0.00 0.00 0.00 89
20260906034148 81 273 2.0 3.0 0.00 0.00 0.00 88
20260906033644 81 234 2.0 4.0 0.00 0.00 0.00 88
20260906033143 81 244 4.0 4.0 0.00 0.00 0.00 88
20260906032640 81 239 2.0 2.0 0.00 0.00 0.00 88
20260906032140 81 243 1.0 3.0 0.00 0.00 0.00 88
20260906031635 81 246 1.0 4.0 0.00 0.00 0.00 87
20260906031131 81 240 2.0 3.0 0.00 0.00 0.00 87
20260906030630 81 239 1.0 2.0 0.00 0.00 0.00 88
20260906030125 81 251 0.0 2.0 0.00 0.00 0.00 87
20260906025624 81 269 2.0 3.0 0.00 0.00 0.00 87
20260906025124 82 248 0.0 2.0 0.00 0.00 0.00 87
20260906024618 82 237 2.0 3.0 0.00 0.00 0.00 86
20260906024113 82 258 2.0 3.0 0.00 0.00 0.00 86
20260906023609 82 223 1.0 2.0 0.00 0.00 0.00 86
20260906023103 82 257 1.0 2.0 0.00 0.00 0.00 85
20260906022558 82 271 1.0 3.0 0.00 0.00 0.00 85
20260906022054 82 257 1.0 2.0 0.00 0.00 0.00 85
20260906021549 82 232 1.0 3.0 0.00 0.00 0.00 84
20260906021048 83 214 2.0 3.0 0.00 0.00 0.00 84
20260906020542 83 253 2.0 4.0 0.00 0.00 0.00 84
20260906020042 83 265 1.0 2.0 0.00 0.00 0.00 84
20260906015541 83 220 0.0 0.0 0.00 0.00 0.00 84
20260906015041 83 221 0.0 1.0 0.00 0.00 0.00 83
20260906014536 83 246 0.0 1.0 0.00 0.00 0.00 83
20260906014032 83 270 0.0 0.0 0.00 0.00 0.00 83
20260906013527 83 270 0.0 0.0 0.00 0.00 0.00 82
20260906013023 83 270 0.0 0.0 0.00 0.00 0.00 81
20260906012518 83 242 0.0 0.0 0.00 0.00 0.00 81
20260906012017 83 224 1.0 1.0 0.00 0.00 0.00 81
20260906011513 83 256 0.0 1.0 0.00 0.00 0.00 81
20260906011013 83 242 0.0 3.0 0.00 0.00 0.00 81
20260906010508 83 274 1.0 3.0 0.00 0.00 0.00 81
20260906010005 84 215 0.0 2.0 0.00 0.00 0.00 80
20260906005504 84 196 0.0 1.0 0.00 0.00 0.00 79
20260906005003 84 197 0.0 1.0 0.00 0.00 0.00 79
20260906004502 84 221 0.0 2.0 0.00 0.00 0.00 79
20260906003958 83 233 1.0 1.0 0.00 0.00 0.00 80
20260906003453 82 261 1.0 2.0 0.00 0.00 0.00 82
20260906002948 82 215 0.0 1.0 0.00 0.00 0.00 83
20260906002448 83 190 0.0 0.0 0.00 0.00 0.00 82
20260906001943 83 190 0.0 0.0 0.00 0.00 0.00 81
20260906001439 83 190 0.0 0.0 0.00 0.00 0.00 81
20260906000934 83 190 0.0 0.0 0.00 0.00 0.00 81
20260906000429 83 190 0.0 0.0 0.00 0.00 0.00 81
20260905235919 84 190 0.0 0.0 0.00 0.00 0.00 79
20260905235418 85 190 0.0 0.0 0.00 0.00 0.00 78
20260905234913 85 191 0.0 0.0 0.00 0.00 0.00 77
20260905234409 86 192 0.0 0.0 0.00 0.00 0.00 76
20260905233903 87 192 0.0 0.0 0.00 0.00 0.00 75
20260905233358 87 192 0.0 0.0 0.00 0.00 0.00 73
20260905232857 88 192 0.0 0.0 0.00 0.00 0.00 71
20260905232354 89 193 0.0 1.0 0.00 0.00 0.00 70
20260905231849 89 243 0.0 1.0 0.00 0.00 0.00 68
20260905231349 89 248 0.0 1.0 0.00 0.00 0.00 66
20260905230847 90 219 0.0 2.0 0.00 0.00 0.00 65
20260905230344 90 227 2.0 4.0 0.00 0.00 0.00 64
20260905225843 90 255 1.0 2.0 0.00 0.00 0.00 65
20260905225338 90 241 1.0 2.0 0.00 0.00 0.00 64
20260905224833 91 193 2.0 3.0 0.00 0.00 0.00 64
20260905224329 91 239 1.0 3.0 0.00 0.00 0.00 62
20260905223824 91 268 1.0 2.0 0.00 0.00 0.00 62
20260905223322 91 266 2.0 2.0 0.00 0.00 0.00 62
20260905222816 92 220 3.0 3.0 0.00 0.00 0.00 59
20260905222315 93 273 4.0 4.0 0.00 0.00 0.00 57
20260905221811 94 238 2.0 2.0 0.00 0.00 0.00 57
20260905221308 94 244 1.0 1.0 0.00 0.00 0.00 56
20260905220803 93 252 0.0 3.0 0.00 0.00 0.00 58
20260905220259 93 262 2.0 3.0 0.00 0.00 0.00 58
20260905215758 93 225 3.0 3.0 0.00 0.00 0.00 56
20260905215254 93 266 4.0 4.0 0.00 0.00 0.00 61
20260905214750 94 189 3.0 3.0 0.00 0.00 0.00 57
20260905214246 93 182 0.0 3.0 0.00 0.00 0.00 57
20260905213741 93 328 3.0 6.0 0.00 0.00 0.00 59
20260905213237 94 241 2.0 3.0 0.00 0.00 0.00 58
20260905212732 94 253 2.0 4.0 0.00 0.00 0.00 57
20260905212231 94 217 1.0 4.0 0.00 0.00 0.00 59
20260905211730 94 290 2.0 4.0 0.00 0.00 0.00 58
20260905211226 94 265 2.0 3.0 0.00 0.00 0.00 57
20260905210723 95 267 3.0 4.0 0.00 0.00 0.00 56
20260905210222 95 275 3.0 3.0 0.00 0.00 0.00 56
20260905205721 93 211 1.0 2.0 0.00 0.00 0.00 60
20260905205216 92 289 1.0 1.0 0.00 0.00 0.00 62
20260905204716 93 250 3.0 3.0 0.00 0.00 0.00 60
20260905204212 94 225 1.0 4.0 0.00 0.00 0.00 58
20260905203706 93 358 1.0 2.0 0.00 0.00 0.00 58
20260905203201 93 38 1.0 1.0 0.00 0.00 0.00 61
20260905202656 94 248 1.0 3.0 0.00 0.00 0.00 58
20260905202152 93 61 0.0 1.0 0.00 0.00 0.00 59
20260905201647 94 0 1.0 6.0 0.00 0.00 0.00 57
20260905201147 95 38 1.0 2.0 0.00 0.00 0.00 59
20260905200642 94 215 0.0 2.0 0.00 0.00 0.00 57
20260905200138 94 280 3.0 3.0 0.00 0.00 0.00 61
20260905195636 94 247 4.0 4.0 0.00 0.00 0.00 56
20260905195131 95 277 3.0 4.0 0.00 0.00 0.00 58
20260905194626 95 290 2.0 6.0 0.00 0.00 0.00 57
20260905194125 94 260 3.0 6.0 0.00 0.00 0.00 56
20260905193620 94 271 2.0 3.0 0.00 0.00 0.00 58
20260905193115 93 258 0.0 3.0 0.00 0.00 0.00 59
20260905192611 94 220 3.0 3.0 0.00 0.00 0.00 58
20260905192107 94 76 0.0 2.0 0.00 0.00 0.00 60
20260905191606 92 173 1.0 6.0 0.00 0.00 0.00 61
20260905191105 92 232 0.0 6.0 0.00 0.00 0.00 62
20260905190603 93 276 3.0 4.0 0.00 0.00 0.00 61
20260905185602 91 224 2.0 2.0 0.00 0.00 0.00 66
20260905185102 91 28 1.0 2.0 0.00 0.00 0.00 67
20260905184556 91 18 1.0 2.0 0.00 0.00 0.00 65
20260905184055 91 32 2.0 2.0 0.00 0.00 0.00 65
20260905183555 91 285 3.0 4.0 0.00 0.00 0.00 65
20260905183045 90 345 2.0 3.0 0.00 0.00 0.00 68
20260905182544 90 294 0.0 3.0 0.00 0.00 0.00 66
20260905182038 91 281 3.0 3.0 0.00 0.00 0.00 65
20260905181533 91 251 5.0 8.0 0.00 0.00 0.00 63
20260905181032 91 245 3.0 4.0 0.00 0.00 0.00 66
20260905180527 90 235 0.0 2.0 0.00 0.00 0.00 67
20260905180023 90 344 0.0 3.0 0.00 0.00 0.00 68
20260905175522 90 55 1.0 1.0 0.00 0.00 0.00 69
20260905175018 91 35 1.0 2.0 0.00 0.00 0.00 67
20260905174513 92 2 1.0 3.0 0.00 0.00 0.00 65
20260905174009 91 268 1.0 2.0 0.00 0.00 0.00 68
20260905173505 89 296 3.0 4.0 0.00 0.00 0.00 66
20260905173000 88 256 2.0 3.0 0.00 0.00 0.00 69
20260905172458 89 356 0.0 1.0 0.00 0.00 0.00 68
20260905171954 90 45 0.0 3.0 0.00 0.00 0.00 67
20260905171450 88 217 1.0 3.0 0.00 0.00 0.00 69
20260905170946 87 236 1.0 2.0 0.00 0.00 0.00 74
20260905170443 87 4 0.0 1.0 0.00 0.00 0.00 74
20260905165941 88 3 2.0 3.0 0.00 0.00 0.00 72
20260905165436 88 266 2.0 4.0 0.00 0.00 0.00 70
20260905164932 88 41 3.0 3.0 0.00 0.00 0.00 70
20260905164426 88 56 1.0 3.0 0.00 0.00 0.00 72
20260905163921 89 41 1.0 2.0 0.00 0.00 0.00 70
20260905163418 89 221 3.0 4.0 0.00 0.00 0.00 69
20260905162913 90 215 1.0 3.0 0.00 0.00 0.00 68
20260905162408 88 162 0.0 1.0 0.00 0.00 0.00 71
20260905161903 87 37 1.0 2.0 0.00 0.00 0.00 72
20260905161403 88 358 1.0 2.0 0.00 0.00 0.00 73
20260905160901 87 28 1.0 2.0 0.00 0.00 0.00 74
20260905160355 85 299 1.0 2.0 0.00 0.00 0.00 78
20260905155854 87 270 3.0 3.0 0.00 0.00 0.00 73
20260905155349 88 272 5.0 6.0 0.00 0.00 0.00 71
20260905154848 88 50 0.0 3.0 0.00 0.00 0.00 73
20260905154344 87 249 2.0 3.0 0.00 0.00 0.00 73
20260905153839 86 184 2.0 3.0 0.00 0.00 0.00 75
20260905153336 86 149 4.0 4.0 0.00 0.00 0.00 74
20260905152835 87 52 1.0 2.0 0.00 0.00 0.00 76
20260905152334 86 284 1.0 1.0 0.00 0.00 0.00 76
20260905151830 86 254 4.0 4.0 0.00 0.00 0.00 76
20260905151325 84 199 1.0 1.0 0.00 0.00 0.00 80
20260905150824 84 241 3.0 6.0 0.00 0.00 0.00 78
20260905150319 84 255 3.0 6.0 0.00 0.00 0.00 79
20260905145817 83 221 1.0 4.0 0.00 0.00 0.00 81
20260905145316 83 220 1.0 3.0 0.00 0.00 0.00 83
20260905144815 83 186 1.0 4.0 0.00 0.00 0.00 84
20260905144311 81 268 2.0 2.0 0.00 0.00 0.00 87
20260905143809 81 250 2.0 6.0 0.00 0.00 0.00 88
20260905143304 80 245 1.0 3.0 0.00 0.00 0.00 93
20260905142803 80 315 1.0 2.0 0.00 0.00 0.00 96
20260905142257 79 43 1.0 1.0 0.00 0.00 0.00 98
20260905141753 79 283 2.0 3.0 0.00 0.00 0.00 98
20260905141249 78 31 0.0 2.0 0.00 0.00 0.00 98
20260905140744 78 65 0.0 2.0 0.00 0.00 0.00 99
20260905140244 78 44 2.0 2.0 0.00 0.00 0.00 99
20260905135743 77 230 2.0 3.0 0.00 0.00 0.00 99
20260905135240 76 52 0.0 1.0 0.00 0.00 0.00 99
20260905134739 76 30 0.0 3.0 0.00 0.00 0.00 99
20260905134238 76 293 1.0 2.0 0.00 0.00 0.00 99
20260905133733 76 277 2.0 4.0 0.00 0.00 0.00 99
20260905133228 76 350 0.0 1.0 0.00 0.00 0.00 99
20260905132727 76 274 0.0 3.0 0.00 0.00 0.00 99
20260905132223 76 264 1.0 2.0 0.00 0.00 0.00 99
20260905131718 76 251 1.0 1.0 0.00 0.00 0.00 99
20260905131214 76 96 0.0 1.0 0.00 0.00 0.00 99
20260905130714 76 44 0.0 1.0 0.00 0.00 0.00 99
20260905130213 76 47 0.0 0.0 0.00 0.00 0.00 99
20260905125708 76 51 0.0 1.0 0.00 0.00 0.00 99
20260905125203 75 279 1.0 2.0 0.00 0.00 0.00 99
20260905124700 76 12 0.0 1.0 0.00 0.00 0.00 99
20260905124155 75 255 0.0 1.0 0.00 0.00 0.00 99
20260905123650 76 314 1.0 2.0 0.00 0.00 0.00 99
20260905123147 75 24 0.0 0.0 0.00 0.00 0.00 99
20260905122647 75 30 0.0 0.0 0.00 0.00 0.00 99
20260905122142 75 270 1.0 2.0 0.00 0.00 0.00 99
20260905121642 75 276 0.0 0.0 0.00 0.00 0.00 99
20260905121138 75 254 1.0 1.0 0.00 0.00 0.00 99